Погода в Боре

Погода в Боре : погода сейчас, прогноз погоды и архив. Всё, что Вы хотите узнать о погоде в Боре!

Хотите узнать прогноз погоды в Боре? Тогда Вам сюда: Погода в Боре

Поиск расширенной информации на нашем сайте:

Другие новости

Новости СМИ2

Главная страница сайта

Новости сайта

03.07.2017

Напоминаем, что на нашем специализированном сайте Метеоцентр.Азия вы можете получить высокодетализированные автоматические прогнозы погоды по пунктам России, СНГ и мира в авиационном формате (включающие направление и скорость ветра, видимость, явления погоды, количество и форму облачности, нижнюю и верхнюю границу облачности).

Рекомендуем: http://odeon-mebel.by/ детские кровати в витебске фото и цены.

Погода в Боре - сегодня

Время (UTC), дата Ветер
(°,м/с) 
Видим.   Явления Облачность Т
(°С)
Тd
(°С)
f(%) Тe
(°С)
Pmin
(гПа)
dP
(гПа)
Po
(мм)
O2
(г/м3)
Тmin Tmax R s Состояние
почвы
00 18.04.18 300 (СЗ) 50000 м  {ливн. осадки}  6/0 верхняя 
[Cs]
-13.3 -17.6 70 -15  1011.1  3.3  753  320  -13.3    104  равномерный
сухой снег
100% 
03 18.04.18 270 (З) 50000 м    8/5 600 м верхняя 
[Cu hum|Ci fib]
-10.5 -15.8 65 -12  1013.3  2.4  754  317           
06 18.04.18 260 (З) 20000 м    9/9 600 м кучево-дожд. 
[Cb cap]
-7.3 -13.7 60 -9  1014.8  1.6  756  314           
09 18.04.18 270 (З) 50000 м    9/9 600 м кучево-дожд. 
[Cb cap]
-5.5 -13.7 52 -7  1015.9  1.1  756  312           
12 18.04.18 280 (З) 20000 м    9/9 600 м кучево-дожд. 
[Cb cap]
-6.4 -14 55 -9  1017  1.1  757  314    -5.4       
15 18.04.18 260 (З) н/о    9/9 600 м кучево-дожд. 
[Cb cap]
-8.8 -14.8 62 -9  1018.3  1.1  758  317           
18 18.04.18 280 (З) н/о    4/4 600 м 
[Sc]
-12 -16.4 70 -12  1018.8  0.5  758  321           
21 18.04.18 тихо ()   н/о    ясно 
-17 -18.9 85 -17  1019.1  0.2  759  327           
00 19.04.18 тихо ()   50000 м    ясно 
-18.8 -20.7 85 -19  1019.5  0.2  759  330  -19.2      103  равномерный
сухой снег
100% 
03 19.04.18 210 (ЮЗ) 50000 м    ясно 
-8.7 -15.9 56 -10  1019.4  0.2  759  317           
06 19.04.18 180 (Ю) 50000 м    4/0 верхняя 
[Ci fib]
-4.5 -15.5 42 -7  1017.8  1.4  758  312           
09 19.04.18 190 (Ю) 50000 м    8/1 600 м верхняя 
[Cu hum|Ci fib]
-2.2 -14.7 38 -4  1016  -1.7  757  309           
12 19.04.18 190 (Ю) 20000 м    8/0 верхняя 
[Ci sp]
-2.4 -13.9 41 -4  1015.3  -0.7  756  309    -2.1       
15 19.04.18 180 (Ю) н/о    10/0 верхняя 
[Cs]
-3.8 -14.8 42 -5  1015.1  -0.3  756  310           
18 19.04.18 040 (СВ) н/о    10/0 верхняя 
[Cs]
-6.5 -13.6 57 -6  1014.2  -0.9  755  313           
21 19.04.18 190 (Ю) н/о    10/0 верхняя 
[Cs]
-4.2 -12.6 52 -4  1013  -1.2  754  310           
00 20.04.18 120 (ЮВ) 20000 м    10/0 верхняя 
[Cs]
-4.2 -13.2 49 -5  1012.1  -0.9  754  310  -7      99  равномерный
сухой снег
100% 
03 20.04.18 170 (Ю) 18000 м  слаб. ливневой снег  10/8 600 м кучево-дожд., верхняя 
[Cb cap|Cs]
-0.8 -9.9 50 -2  1010.7  -1.2  753  305           
06 20.04.18 190 (Ю) 50000 м  {ливн. осадки}  10/3 600 м верхняя 
[Cu hum|Cs]
+2.4 -9 43 +1  1010.4  -0.2  752  301           
09 20.04.18 180 (Ю) 50000 м    9/5 600 м верхняя 
[Cu hum|Ci sp]
+3.3 -8.4 42 +2  1010.4  752  300           
12 20.04.18 190 (Ю) 18000 м  слаб. дождь со снегом  10/0 верхняя 
[Cs]
+1.6 -6.1 57 -1  1010  -0.5  752  302    +4.2  0.0     
21 20.04.18 170 (Ю) н/о  слаб. снег  10/4 600 м верхняя 
[Sc|Cs]
+1 +0.2 94 +2  1004.8  -1.5  748  300           
00 21.04.18 170 (Ю) 18000 м  слаб. снег  10/0 верхняя 
[Cs]
+0.8 -0.6 90 -1  1003.3  -1.5  747  300  +0.7    100  равномерный
сухой снег
100% 
06 21.04.18 170 (Ю) 16000 м  слаб. ливневой дождь со снегом  10/10 600 м кучево-дожд. 
[Cb cap]
+2.3 +1 91 +1  1001.4  -0.5  746  298           
09 21.04.18 190 (Ю) 18000 м  слаб. ливневой дождь  10/10 600 м кучево-дожд. 
[Cb cap]
+3 +1.5 90 +2  1001.9  0.5  746  297           
Время (UTC), дата Ветер
(°,м/с) 
Видим.   Явления Облачность Т
(°С)
Тd
(°С)
f(%) Тe
(°С)
Pmin
(гПа)
dP
(гПа)
Po
(мм)
O2
(г/м3)
Тmin Tmax R s Состояние
почвы

Для получения пояснительной информации подведите курсор к названию столбца.

ПОГОДА в Боре - архив

Всё, что Вы хотите узнать о погоде в Боре - удобно и подробно!

Выберите нужную дату (начиная с 1 января 2015* года) и нажмите кнопку "Найти".
Будут отображены архивные сводки погоды по пункту Бор, начиная с указанной даты.


Отображать данные в формате CSV (для использования в таблицах Excel)


Внимание! Наш архив погоды предназначен исключительно для личного некоммерческого использования в познавательных целях. Если Вам необходимы официальные справки о состоянии погоды (для производственных, юридических, коммерческих и т.п. целей), обращайтесь в органы Росгидромета.

*Примечание: данная дата относится к архиву по метеостанциям СССР (Россия, СНГ, Балтия).
Архив по метеостанциям Зарубежной Европы и Азии (кроме Китая) хранится 10 дней, по другим регионам земного шара (Китай, Африка, Америка, Австралия, Океания) - 1 день.

Бор - район местоположения метеостанции


Название, широта, долгота, высота метеостанции:
Бор 61.6°ш. 90°д. 58 м над ур. моря [Российская Федерация]

Дополнительная информация

В oтличие oт бoльшинства пoгoдных сайтoв мы публикуем пoдрoбную метеoинфoрмацию в детальнoм прoфессиoнальнoм фoрмате.

Характеристики температуры и влажнoсти вoздуха измеряются на высoте 2 м в тени вдали oт зданий и деревьев.
Скoрoсть ветра измеряется на высoте 10 м (на урoвне рoста челoвека скoрoсть ветра ниже в 1.5-2 раза). Если метеoстанция нахoдится в гoрoде или в лесу, тo скoрoсть ветра занижена на 2-4 м/с пo сравнению с oткрытым местoм. Скoрoсть ветра над акватoриями крупных рек и oзёр, а также на вершинах хoлмoв на 2-5 м/с выше, чем в oбычных услoвиях.
Атмoсфернoе давление в разных тoчках местнoсти мoжет значительнo oтличаться oт давления на метеoстанции, в зависимoсти oт услoвий рельефа (при пoдъёме на 10 м давление пoнижается примернo на 1 мм рт.ст.).